Terminal Aerodrome Forecast
Issued by NWS Sioux Falls, SD

Home | Current Version | Previous Version | Text Only | Print | Product List | Glossary On
Versions: 1 2 3 4 5 6 7 8 9 10 11 12 13 14 15
000
FTUS43 KFSD 150520
TAFHON
TAF
KHON 150520Z 1506/1606 35004KT P6SM OVC080
     FM151100 33006KT P6SM SKC
     FM160000 VRB03KT P6SM SKC=

USA.gov is the U.S. government's official web portal to all federal, state and local government web resources and services.